Sigfox identifier Datetime Temperature Humidity SNR
003BC2A6 2018-10-09 08:53:20 20.8 41 19.5
003BC2A6 2018-10-09 07:49:08 20.8 40 19.8
003BC2A6 2018-10-09 06:44:56 20.8 40 20.2
003BC2A6 2018-10-09 05:40:44 20.8 40 18.1
003BC2A6 2018-10-09 04:36:30 20.8 39 18.5
003BC2A6 2018-10-09 01:23:48 20.8 38 18.7
003BC2A6 2018-10-09 00:19:34 20.8 38 18.9
003BC2A6 2018-10-08 23:15:21 20.8 38 19.4
003BC2A6 2018-10-08 22:11:08 20.8 38 19.5
003BC2A6 2018-10-08 21:06:55 20.9 37 19.4
003BC2A6 2018-10-08 20:02:43 21 37 19.6
003BC2A6 2018-10-08 18:58:29 21 37 19.7
003BC2A6 2018-10-08 17:54:16 21 37 19.6
003BC2A6 2018-10-08 16:50:02 21 37 19.7
003BC2A6 2018-10-08 15:45:50 21 37 19.5
003BC2A6 2018-10-08 14:41:34 20.8 37 19.6
003BC2A6 2018-10-08 13:37:19 20.9 37 19.5
003BC2A6 2018-10-08 12:33:04 20.9 37 19.5
003BC2A6 2018-10-08 11:28:54 20.8 36 19.5
003BC2A6 2018-10-08 10:24:38 20.6 34 19.6
003BC2A6 2018-10-08 09:20:26 20.4 30 19.6
003BC2A6 2018-10-08 08:16:13 20.4 29 19.4
003BC2A6 2018-10-08 07:12:04 20.4 34 19.7
003BC2A6 2018-10-08 06:07:47 20.4 34 19.8
003BC2A6 2018-10-08 05:03:34 20.4 34 19.4
003BC2A6 2018-10-08 03:59:22 20.4 35 19.4
003BC2A6 2018-10-08 02:55:11 20.4 36 19.5
003BC2A6 2018-10-08 01:51:01 20.4 36 19.1
003BC2A6 2018-10-08 00:46:53 20.5 37 18.8
003BC2A6 2018-10-07 23:42:41 20.5 37 18.8
003BC2A6 2018-10-07 22:38:30 20.6 38 18.5
003BC2A6 2018-10-07 21:34:21 20.6 38 18.2
003BC2A6 2018-10-07 20:30:10 20.6 38 17.8
003BC2A6 2018-10-07 19:26:02 20.6 38 17.4
003BC2A6 2018-10-07 18:21:50 20.7 38 17.6
003BC2A6 2018-10-07 17:17:40 20.6 38 17.3
003BC2A6 2018-10-07 16:13:31 20.5 38 17.3
003BC2A6 2018-10-07 15:09:19 20.5 39 17.3
003BC2A6 2018-10-07 14:05:08 20.5 39 17.1
003BC2A6 2018-10-07 13:00:57 20.4 39 17.2
003BC2A6 2018-10-07 11:56:43 20.4 39 17.9
003BC2A6 2018-10-07 10:52:28 20.4 39 18.3
003BC2A6 2018-10-07 09:48:13 20.5 39 18.3
003BC2A6 2018-10-07 08:43:58 20.5 39 20.3
003BC2A6 2018-10-07 07:39:45 20.5 40 20.4
003BC2A6 2018-10-07 06:35:32 20.6 40 20.6
003BC2A6 2018-10-07 05:31:19 20.5 40 20.5
003BC2A6 2018-10-07 04:27:08 20.6 40 20.6
003BC2A6 2018-10-07 03:22:57 20.6 40 20.7
003BC2A6 2018-10-07 02:18:45 20.6 41 20.8
003BC2A6 2018-10-07 01:14:35 20.6 41 20.6
003BC2A6 2018-10-07 00:10:25 20.6 41 20.7
003BC2A6 2018-10-06 23:06:16 20.6 41 20.7
003BC2A6 2018-10-06 22:02:06 20.6 41 21.1
003BC2A6 2018-10-06 20:57:58 20.6 41 21.1
003BC2A6 2018-10-06 19:53:50 20.6 41 21.5
003BC2A6 2018-10-06 18:49:38 20.6 40 21.6
003BC2A6 2018-10-06 17:45:28 20.6 41 21.6
003BC2A6 2018-10-06 16:41:16 20.7 40 21.7
003BC2A6 2018-10-06 15:37:05 20.6 41 21.8
003BC2A6 2018-10-06 14:32:54 20.7 41 22
003BC2A6 2018-10-06 13:28:41 20.6 40 22.1
003BC2A6 2018-10-06 12:24:30 20.6 40 22.4
003BC2A6 2018-10-06 11:20:14 20.6 40 22.6
003BC2A6 2018-10-06 10:16:00 20.6 40 22.8
003BC2A6 2018-10-06 09:11:48 20.6 40 22.7
003BC2A6 2018-10-06 08:07:36 20.6 41 22.8
003BC2A6 2018-10-06 07:03:26 20.6 41 23
003BC2A6 2018-10-06 05:59:16 20.6 42 21.3
003BC2A6 2018-10-06 04:55:06 20.6 42 21.1
003BC2A6 2018-10-06 03:50:53 20.6 42 21.1
003BC2A6 2018-10-06 02:46:40 20.6 42 21.5
003BC2A6 2018-10-06 01:42:28 20.6 43 21
003BC2A6 2018-10-06 00:38:17 20.7 43 21
003BC2A6 2018-10-05 23:34:06 20.8 44 21.2
003BC2A6 2018-10-05 22:29:55 20.8 44 21.7
003BC2A6 2018-10-05 21:25:42 21 45 22.1
003BC2A6 2018-10-05 20:21:30 21.1 45 23.1
003BC2A6 2018-10-05 19:17:22 21.3 45 22.3
003BC2A6 2018-10-05 18:13:15 21.7 45 24.3
003BC2A6 2018-10-05 17:09:06 21.7 57 0